This is the latest recevied weather packets stored in our database for station/object M0XDC-10. If no packets are shown the sender has not sent any weather packets the latest 10 day(s).
| Time | Temp. | Humidity | Pressure | Rain* | Wind** | Luminosity | Snow |
|---|---|---|---|---|---|---|---|
| 1777617873 | 26.11° C | 27% | 1021.6 hPa | - | - | - | - |
| 1777616973 | 26.11° C | 27% | 1021.5 hPa | - | - | - | - |
| 1777616106 | 26.67° C | 27% | 1021.5 hPa | - | - | - | - |
| 1777616072 | 26.67° C | 27% | 1021.5 hPa | - | - | - | - |
| 1777615172 | 26.11° C | 28% | 1021.6 hPa | - | - | - | - |
| 1777614271 | 26.11° C | 28% | 1021.4 hPa | - | - | - | - |
| 1777613375 | 26.11° C | 29% | 1021.4 hPa | - | - | - | - |
| 1777612474 | 26.11° C | 29% | 1021.5 hPa | - | - | - | - |
| 1777611574 | 26.67° C | 29% | 1021.4 hPa | - | - | - | - |
| 1777610708 | 26.11° C | 30% | 1021.4 hPa | - | - | - | - |
| 1777610674 | 26.11° C | 30% | 1021.4 hPa | - | - | - | - |
| 1777609774 | 26.11° C | 31% | 1021.3 hPa | - | - | - | - |
| 1777608873 | 25.56° C | 29% | 1021.3 hPa | - | - | - | - |
| 1777607973 | 25° C | 29% | 1021.3 hPa | - | - | - | - |
| 1777607073 | 25° C | 29% | 1021.5 hPa | - | - | - | - |
| 1777606173 | 25° C | 29% | 1021.5 hPa | - | - | - | - |
| 1777605272 | 24.44° C | 29% | 1021.5 hPa | - | - | - | - |
| 1777604372 | 24.44° C | 30% | 1021.6 hPa | - | - | - | - |
| 1777603509 | 24.44° C | 29% | 1021.8 hPa | - | - | - | - |
| 1777603472 | 24.44° C | 29% | 1021.8 hPa | - | - | - | - |
| 1777602608 | 24.44° C | 29% | 1021.7 hPa | - | - | - | - |
| 1777602572 | 24.44° C | 29% | 1021.7 hPa | - | - | - | - |
| 1777601672 | 24.44° C | 29% | 1021.7 hPa | - | - | - | - |
| 1777587324 | 25.56° C | 28% | 1022.2 hPa | - | - | - | - |
| 1777584575 | 25.56° C | 29% | 1022.1 hPa | - | - | - | - |
* Rain since midnight (hover to see other rain measurements)
** Current wind speed in m/s (hover to see current wind gust speed)